Regional Weather Roundup
Issued by NWS Newport/Morehead, NC

Current Version | Previous Version | Text Only | Print | Product List | Glossary On
Versions: 1 2 3 4 5 6 7 8 9 10 11 12 13 14 15 16 17 18 19 20 21 22 23 24 25 26 27 28 29 30 31 32 33 34 35 36 37 38 39 40 41 42 43 44 45 46 47 48 49 50
000
ASUS42 KMHX 020513
RWRMHX
WEATHER ROUNDUP FOR EASTERN NORTH CAROLINA
NATIONAL WEATHER SERVICE NEWPORT/MOREHEAD CITY NC
1200 AM EST FRI DEC 02 2016

NOTE: "FAIR" INDICATES FEW OR NO CLOUDS BELOW 12,000 FEET
WITH NO SIGNIFICANT WEATHER AND/OR OBSTRUCTIONS TO VISIBILITY

NCZ015>017-031-032-045>047-102-103-020600-
NORTH COAST

CITY           SKY/WX    TMP DP  RH WIND       PRES   REMARKS
EDENTON        CLEAR     48  37  65 CALM      29.97R
ELIZABETH CITY PTCLDY    47  35  63 NW8       29.95R
KITTY HAWK     CLEAR     53  41  64 CALM      29.93R
MANTEO         CLEAR     51  42  71 W3        29.95S

$$

NCZ045>047-081-094-103-104-020600-
CENTRAL COAST

CITY           SKY/WX    TMP DP  RH WIND       PRES   REMARKS
FRISCO         CLEAR     55  40  56 VRB5      29.94S

$$

NCZ095-097-098-100-101-020600-
SOUTHERN COAST

CITY           SKY/WX    TMP DP  RH WIND       PRES   REMARKS
BEAUFORT       CLEAR     53  45  74 NW3       29.97R
CEDAR ISLAND   NOT AVBL
JACKSONVILLE   CLEAR     46  44  93 SW3       29.97R
PINEY ISLAND   CLEAR    N/A N/A N/A NW3       29.96R
WILMINGTON     CLEAR     50  44  80 W5        29.99R


$$

NCZ011>013-027>030-043-044-078>080-089-090>093-098-020600-
COASTAL PLAIN

CITY           SKY/WX    TMP DP  RH WIND       PRES   REMARKS
AHOSKIE        PTCLDY    45  33  64 CALM      29.98S
CLINTON        CLEAR     46  44  91 CALM      30.00R
ELIZABETHTOWN  PTCLDY    46  42  87 CALM      29.99R
GOLDSBORO      CLEAR     49  36  59 CALM      29.98R
GREENVILLE     CLEAR     46  36  66 N5        30.00R
HAVELOCK       PTCLDY    43  41  93 W5        29.98R
KENANSVILLE    CLEAR     41  39  93 CALM      29.99R
KINSTON          N/A     43  39  85 CALM      30.00R
NEW BERN       CLEAR     44  41  89 CALM      29.99R
RICHLANDS      CLEAR     41  41 100 SW5       29.99R FOG
ROCKY MOUNT    CLEAR     45  35  68 NW6       30.00R
WASHINGTON     CLEAR     47  37  67 NW5       29.98R
WHITEVILLE     CLEAR     46  42  87 CALM      29.99R

$$

AMZ130-135-150-152-154-156-158-170-250-252-270-ANZ085-086-088-633-658-670-020600-
MARINE OBSERVATIONS

STATION/POSITION TIME  TEMP    WIND        PRES    WAVE   SWELL
                       AIR SEA DIR/SP/G            HT/PER HT/PER
                 (UTC) (F)     (DEG/KT/KT) (MB)    (FT/S) (FT/S)
CHESAPEAKE LIGHT NOT AVBL
64 E VA BEACH    0450   57 59  340/ 16/ 23 1012.5    3/ 8   2/ 8
DUCK             0448   54 58  310/ 10/ 12 1013.2
2 E DUCK         NOT AVBL
OREGON INLET     0442   54 60  300/  4/  6 1013.9
13E OREGON INLT  0500      64                N/A     4/ 9   3/ 9
HATTERAS CG      0448   57 65  350/ 11/ 12 1013.5
DIAMOND BUOY     0450   62 76  350/ 17/ 21 1013.6    4/ 8   3/ 8
CAPE LOOKOUT     0400   59     330/ 10/ 11 1013.9
BEAUFORT LAB     0448   55 60  330/  3/  5 1013.5
30 SE NEW RVR IN 0408   64 73  340/ 14/ 17 1014.4
30 SE NEW RVR IN NOT AVBL
27 SE WRIGHTSVLE 0408   62 68  300/ 14/ 19 1014.3
5 SE WRIGHTSVLE  0408   56 62  300/ 14/ 19 1014.4
225 S CAPE HAT   0450   74 74  270/ 14/ 16 1013.9    7/ 7   5/ 7
41 SE CHARLESTON 0450   63 75  300/ 17/ 23 1015.7    5/ 5   2/ 8

$$




USA.gov is the U.S. government's official web portal to all federal, state and local government web resources and services.